Weather History for Guatemala Aeropuertola Aurora, Guatemala

Change the Weather History Date:

Tuesday, August 6, 2013

  Actual Average Record
Temperature  
Mean Temperature 70 °F -  
Max Temperature 78 °F 75 °F - ()
Min Temperature 62 °F 60 °F - ()
Cooling Degree Days 5    
Growing Degree Days 20 (Base 50)    
Moisture  
Dew Point 59 °F    
Average Humidity 70    
Maximum Humidity 94    
Minimum Humidity 44    
Precipitation  
Precipitation 0.00 in - - ()
Sea Level Pressure  
Sea Level Pressure 30.28 in    
Wind  
Wind Speed 11 mph ()    
Max Wind Speed 16 mph    
Max Gust Speed -    
Visibility 6.2 miles    
Events      
T = Trace of Precipitation, MM = Missing Value Source: Averaged Metar Reports

Daily Weather History Graph

Daily Weather History Graph

Search for Another Location

Airport:

Trip Planner

Search our weather history database for the weather conditions in past years. The results will help you decide how hot, cold, wet, or windy it might be!

Date:

Astronomy

Aug. 06, 2013 Rise Set
Actual Time 5:46 AM CST 6:29 PM CST
Civil Twilight 5:24 AM CST 6:51 PM CST
Nautical Twilight 4:57 AM CST 7:17 PM CST
Astronomical Twilight 4:31 AM CST 7:44 PM CST
Moon 5:29 AM CST (8/6) 6:17 PM CST (8/6)
Length of Visible Light 13h 27m
Length of Day
12h 42m
Waning Crescent, 0% of the Moon is Illuminated
Aug 6
Waning Crescent
Aug 6
New
Aug 14
First Quarter
Aug 20
Full
Aug 28
Last Quarter

Hourly Weather History & Observations

Time (CST) Temp. Dew Point Humidity Pressure Visibility Wind Dir Wind Speed Gust Speed Precip Events Conditions
12:00 AM 66.2 °F 60.8 °F 83% 30.33 in 6.2 mi North 11.5 mph - N/A   Scattered Clouds
1:00 AM 64.4 °F 60.8 °F 88% 30.30 in 6.2 mi North 16.1 mph - N/A   Mostly Cloudy
2:00 AM 64.4 °F 60.8 °F 88% 30.27 in 6.2 mi North 16.1 mph - N/A   Scattered Clouds
3:00 AM 64.4 °F 62.6 °F 94% 30.30 in 6.2 mi North 13.8 mph - N/A   Mostly Cloudy
4:00 AM 64.4 °F 62.6 °F 94% 30.27 in 6.2 mi North 13.8 mph - N/A   Mostly Cloudy
5:00 AM 64.4 °F 60.8 °F 88% 30.30 in 6.2 mi North 11.5 mph - N/A   Scattered Clouds
6:00 AM 64 °F 61 °F 88% 29.97 in 25 mi North 13.8 mph - -   Overcast
6:00 AM 64.4 °F 60.8 °F 88% 30.30 in 6.2 mi North 13.8 mph - N/A   Scattered Clouds
7:00 AM 64.4 °F 60.8 °F 88% 30.33 in 6.2 mi North 11.5 mph - N/A   Mostly Cloudy
8:00 AM 68.0 °F 59.0 °F 73% 30.33 in 6.2 mi North 13.8 mph - N/A   Scattered Clouds
9:00 AM 69.8 °F 60.8 °F 73% 30.33 in 6.2 mi North 13.8 mph - N/A   Scattered Clouds
10:00 AM 71.6 °F 59.0 °F 64% 30.33 in 6.2 mi North 11.5 mph - N/A   Scattered Clouds
11:00 AM 73.4 °F 59.0 °F 61% 30.36 in 6.2 mi North 13.8 mph - N/A   Scattered Clouds
12:00 PM 76 °F 59 °F 45% 29.97 in 25 mi North 13.8 mph - -   Scattered Clouds
12:00 PM 77.0 °F 59.0 °F 54% 30.33 in 6.2 mi North 13.8 mph - N/A   Partly Cloudy
1:00 PM 77.0 °F 59.0 °F 54% 30.30 in 6.2 mi North 6.9 mph - N/A   Scattered Clouds
2:00 PM 78.8 °F 57.2 °F 47% 30.27 in 6.2 mi Variable 3.5 mph - N/A   Partly Cloudy
3:00 PM 77.0 °F 59.0 °F 54% 30.27 in 6.2 mi NNE 11.5 mph - N/A   Scattered Clouds
4:00 PM 77.0 °F 57.2 °F 50% 30.24 in 6.2 mi NE 6.9 mph - N/A   Partly Cloudy
5:00 PM 77.0 °F 53.6 °F 44% 30.24 in 6.2 mi NNE 9.2 mph - N/A   Partly Cloudy
6:00 PM 75.2 °F 53.6 °F 47% 30.27 in 6.2 mi North 11.5 mph - N/A   Scattered Clouds
7:00 PM 71.6 °F 53.6 °F 53% 30.30 in 6.2 mi North 9.2 mph - N/A   Scattered Clouds
8:00 PM 69.8 °F 57.2 °F 64% 30.30 in - North 9.2 mph - N/A   Clear
9:00 PM 68.0 °F 59.0 °F 73% 30.33 in - North 13.8 mph - N/A   Clear
10:00 PM 66.2 °F 59.0 °F 78% 30.33 in 6.2 mi North 11.5 mph - N/A   Partly Cloudy
11:00 PM 64.4 °F 60.8 °F 88% 30.36 in 6.2 mi North 11.5 mph - N/A   Partly Cloudy